UAE98X OMDB-EPWA

Flight info

Callsign UAE98X
Flight time 7h 23m
Altitude 38000
Route ANVIX L223 TARDI N629 BOTAM Y855 LAKLU/N0487F360 Q204 NALKI G652 TOKRA DCT ALROK DCT BOSOB DCT ITRUX Y511 PMA Z712 WEJ/N0487F380 L677 CVO L617 NOZ L551 ANTAR DCT RIGRO DCT ATFIR N133 USALI DCT LOMOS DCT NEKUL DCT BUXLE DCT MEGIK DCT KEKED DCT ORTEB DCT KONZI DCT LOGDA
Aircraft B77L/H-SDE1E2E3FGHIJ2J3J4J5M1RWXY/LB1D1

Departure

Time 2026-04-25 11:03
Airport Dubai International Airport (OMDB)

Arrival

Time 2026-04-25 18:26
Airport Warsaw Chopin Airport (EPWA)
Time Latitude Longitude Altitude Speed Heading
2026-04-25 10:03 25.25277 55.35568 17 ft 0 kts 212°
2026-04-25 10:44 25.25286 55.35574 17 ft 2 kts 211°
2026-04-25 10:44 25.25300 55.35585 18 ft 2 kts 216°
2026-04-25 10:44 25.25313 55.35596 20 ft 2 kts 220°
2026-04-25 10:44 25.25326 55.35608 21 ft 2 kts 227°
2026-04-25 10:45 25.25336 55.35623 21 ft 2 kts 219°
2026-04-25 10:45 25.25352 55.35631 20 ft 2 kts 261°
2026-04-25 10:45 25.25347 55.35648 22 ft 2 kts 288°
2026-04-25 10:45 25.25341 55.35665 19 ft 2 kts 304°
2026-04-25 10:46 25.25338 55.35670 21 ft 0 kts 303°
2026-04-25 10:50 25.25341 55.35666 19 ft 1 kts 302°
2026-04-25 10:50 25.25346 55.35657 22 ft 2 kts 301°
2026-04-25 10:50 25.25355 55.35640 21 ft 3 kts 300°
2026-04-25 10:51 25.25375 55.35602 17 ft 8 kts 301°
2026-04-25 10:51 25.25411 55.35536 17 ft 12 kts 301°
2026-04-25 10:51 25.25459 55.35450 17 ft 14 kts 302°
2026-04-25 10:51 25.25514 55.35351 19 ft 15 kts 302°
2026-04-25 10:52 25.25571 55.35248 20 ft 16 kts 298°
2026-04-25 10:52 25.25638 55.35162 26 ft 13 kts 339°
2026-04-25 10:52 25.25728 55.35190 25 ft 15 kts 31°
2026-04-25 10:52 25.25834 55.35263 20 ft 19 kts 32°
2026-04-25 10:53 25.25891 55.35300 23 ft 0 kts 31°
2026-04-25 10:53 25.25896 55.35304 24 ft 2 kts 31°
2026-04-25 10:54 25.25912 55.35315 26 ft 4 kts 32°
2026-04-25 10:54 25.25928 55.35327 26 ft 5 kts 36°
2026-04-25 10:54 25.25976 55.35365 28 ft 8 kts 40°
2026-04-25 10:54 25.26006 55.35430 24 ft 12 kts 78°
2026-04-25 10:55 25.25986 55.35530 25 ft 15 kts 115°
2026-04-25 10:55 25.25927 55.35643 24 ft 19 kts 121°
2026-04-25 10:55 25.25852 55.35777 21 ft 22 kts 122°
2026-04-25 10:55 25.25769 55.35924 25 ft 23 kts 121°
2026-04-25 10:56 25.25705 55.36042 28 ft 17 kts 121°
2026-04-25 10:56 25.25642 55.36159 27 ft 18 kts 120°
2026-04-25 10:56 25.25570 55.36280 26 ft 20 kts 120°
2026-04-25 10:56 25.25493 55.36425 27 ft 23 kts 121°
2026-04-25 10:57 25.25403 55.36586 29 ft 26 kts 122°
2026-04-25 10:57 25.25302 55.36766 28 ft 28 kts 122°
2026-04-25 10:57 25.25199 55.36953 31 ft 29 kts 121°
2026-04-25 10:57 25.25094 55.37144 38 ft 29 kts 121°
2026-04-25 10:58 25.24984 55.37345 42 ft 31 kts 121°
2026-04-25 10:58 25.24923 55.37456 43 ft 0 kts 122°
2026-04-25 10:58 25.24923 55.37457 43 ft 1 kts 122°
2026-04-25 10:58 25.24912 55.37475 42 ft 5 kts 122°
2026-04-25 10:59 25.24884 55.37524 42 ft 10 kts 122°
2026-04-25 10:59 25.24840 55.37603 42 ft 14 kts 122°
2026-04-25 10:59 25.24785 55.37701 42 ft 16 kts 122°
2026-04-25 10:59 25.24734 55.37795 44 ft 14 kts 120°
2026-04-25 11:00 25.24683 55.37898 44 ft 16 kts 106°
2026-04-25 11:00 25.24700 55.37966 44 ft 1 kts 50°
2026-04-25 11:00 25.24700 55.37967 44 ft 0 kts 50°
2026-04-25 11:01 25.24705 55.37972 44 ft 2 kts 46°
2026-04-25 11:01 25.24723 55.37989 44 ft 5 kts 37°
2026-04-25 11:02 25.24757 55.38009 45 ft 6 kts 19°
2026-04-25 11:02 25.24807 55.38003 44 ft 8 kts 332°
2026-04-25 11:02 25.24844 55.37949 44 ft 10 kts 301°
2026-04-25 11:02 25.24922 55.37810 44 ft 48 kts 302°
2026-04-25 11:03 25.25229 55.37262 44 ft 115 kts 302°
2026-04-25 11:03 25.25740 55.36358 36 ft 165 kts 303°
2026-04-25 11:03 25.26378 55.35249 464 ft 170 kts 302°
2026-04-25 11:03 25.26983 55.34147 1048 ft 172 kts 305°
2026-04-25 11:04 25.27606 55.33011 1611 ft 174 kts 305°
2026-04-25 11:04 25.28261 55.31829 2016 ft 186 kts 305°
2026-04-25 11:04 25.28943 55.30595 2547 ft 189 kts 302°
2026-04-25 11:04 25.29284 55.29695 2764 ft 197 kts 280°
2026-04-25 11:05 25.28823 55.27740 3380 ft 201 kts 244°
2026-04-25 11:05 25.28222 55.26340 3853 ft 199 kts 245°
2026-04-25 11:05 25.27643 55.24971 4390 ft 194 kts 244°
2026-04-25 11:05 25.27074 55.23627 4998 ft 191 kts 244°
2026-04-25 11:06 25.26505 55.22290 5497 ft 191 kts 244°
2026-04-25 11:06 25.25938 55.20954 5875 ft 200 kts 244°
2026-04-25 11:06 25.25312 55.19482 6031 ft 222 kts 245°
2026-04-25 11:06 25.24579 55.17917 6325 ft 235 kts 231°
2026-04-25 11:07 25.23248 55.16864 6738 ft 245 kts 197°
2026-04-25 11:07 25.21518 55.16720 7260 ft 253 kts 179°
2026-04-25 11:07 25.19744 55.16945 7737 ft 262 kts 166°
2026-04-25 11:07 25.18175 55.17991 8206 ft 280 kts 135°
2026-04-25 11:08 25.17094 55.19870 8578 ft 294 kts 120°
2026-04-25 11:08 25.16154 55.21899 8992 ft 300 kts 120°
2026-04-25 11:08 25.15188 55.23953 8974 ft 309 kts 120°
2026-04-25 11:08 25.14189 55.26058 8973 ft 307 kts 120°
2026-04-25 11:09 25.13206 55.28115 8979 ft 302 kts 120°
2026-04-25 11:09 25.12223 55.30166 8964 ft 300 kts 120°
2026-04-25 11:09 25.11250 55.32189 8969 ft 299 kts 121°
2026-04-25 11:09 25.10304 55.34225 9037 ft 299 kts 117°
2026-04-25 11:10 25.09441 55.36331 9460 ft 299 kts 116°
2026-04-25 11:10 25.09158 55.37032 9700 ft 301 kts 116°
2026-04-25 11:10 25.07713 55.40585 10799 ft 308 kts 117°
2026-04-25 11:10 25.06834 55.42763 11411 ft 317 kts 116°
2026-04-25 11:11 25.05937 55.45085 11671 ft 342 kts 115°
2026-04-25 11:11 25.05307 55.46736 11805 ft 359 kts 115°
2026-04-25 11:11 25.03959 55.50263 12108 ft 390 kts 115°
2026-04-25 11:11 25.02891 55.53043 12843 ft 396 kts 115°
2026-04-25 11:12 25.02165 55.54925 13355 ft 400 kts 115°
2026-04-25 11:12 25.00926 55.57696 14084 ft 403 kts 122°
2026-04-25 11:12 24.99473 55.60333 14720 ft 409 kts 124°
2026-04-25 11:12 24.97933 55.63001 15333 ft 416 kts 124°
2026-04-25 11:13 24.96399 55.65735 15972 ft 423 kts 123°
2026-04-25 11:13 24.94872 55.68536 16626 ft 428 kts 122°
2026-04-25 11:13 24.93292 55.71350 17230 ft 435 kts 126°
2026-04-25 11:13 24.91521 55.74079 17871 ft 439 kts 128°
2026-04-25 11:14 24.89670 55.76770 18481 ft 443 kts 129°
2026-04-25 11:14 24.87802 55.79493 19098 ft 446 kts 128°
2026-04-25 11:14 24.85952 55.82249 19730 ft 449 kts 128°
2026-04-25 11:14 24.84113 55.85021 20318 ft 452 kts 128°
2026-04-25 11:15 24.82227 55.87836 20869 ft 456 kts 128°
2026-04-25 11:15 24.80326 55.90639 21454 ft 459 kts 128°
2026-04-25 11:15 24.78398 55.93470 22017 ft 463 kts 129°
2026-04-25 11:15 24.76255 55.96119 22509 ft 464 kts 138°
2026-04-25 11:16 24.71406 56.00816 23538 ft 470 kts 140°
2026-04-25 11:16 24.68993 56.03218 23986 ft 473 kts 139°
2026-04-25 11:16 24.66579 56.05701 24432 ft 476 kts 139°
2026-04-25 11:17 24.64148 56.08226 24866 ft 479 kts 138°
2026-04-25 11:17 24.61831 56.10623 25263 ft 483 kts 139°
2026-04-25 11:17 24.59605 56.12916 25642 ft 486 kts 139°
2026-04-25 11:17 24.57145 56.15474 26058 ft 490 kts 137°
2026-04-25 11:18 24.54832 56.18248 26485 ft 494 kts 132°
2026-04-25 11:18 24.52608 56.21105 26919 ft 497 kts 132°
2026-04-25 11:18 24.50368 56.24006 27325 ft 500 kts 132°
2026-04-25 11:18 24.48095 56.26941 27740 ft 503 kts 132°
2026-04-25 11:19 24.45808 56.29875 28147 ft 506 kts 132°
2026-04-25 11:19 24.43528 56.32783 28512 ft 509 kts 132°
2026-04-25 11:19 24.41208 56.35732 28873 ft 512 kts 132°
2026-04-25 11:19 24.38873 56.38694 29235 ft 515 kts 132°
2026-04-25 11:20 24.36519 56.41681 29598 ft 517 kts 132°
2026-04-25 11:20 24.34134 56.44706 29972 ft 519 kts 132°
2026-04-25 11:20 24.31772 56.47702 30358 ft 519 kts 132°
2026-04-25 11:20 24.29490 56.50653 30762 ft 518 kts 130°
2026-04-25 11:21 24.27295 56.53866 31171 ft 519 kts 127°
2026-04-25 11:21 24.25211 56.57031 31540 ft 519 kts 127°
2026-04-25 11:21 24.23075 56.60298 31938 ft 519 kts 127°
2026-04-25 11:21 24.21001 56.63462 32316 ft 519 kts 127°
2026-04-25 11:22 24.18869 56.66694 32724 ft 519 kts 127°
2026-04-25 11:22 24.17443 56.68845 32991 ft 518 kts 127°
2026-04-25 11:22 24.14631 56.73072 33479 ft 518 kts 127°
2026-04-25 11:22 24.12501 56.76266 33849 ft 518 kts 127°
2026-04-25 11:23 24.10369 56.79465 34151 ft 518 kts 127°
2026-04-25 11:23 24.08238 56.82660 34391 ft 520 kts 127°
2026-04-25 11:23 24.05941 56.85700 34568 ft 519 kts 138°
2026-04-25 11:23 24.03128 56.88154 34788 ft 517 kts 150°
2026-04-25 11:24 23.99969 56.89994 34832 ft 516 kts 161°
2026-04-25 11:24 23.96556 56.91141 34900 ft 511 kts 170°
2026-04-25 11:24 23.89672 56.92851 34901 ft 508 kts 171°
2026-04-25 11:25 23.82765 56.94617 34908 ft 505 kts 170°
2026-04-25 11:25 23.75981 56.96425 34927 ft 504 kts 169°
2026-04-25 11:26 23.69178 56.98257 34936 ft 504 kts 169°
2026-04-25 11:26 23.62351 57.00090 34944 ft 505 kts 169°
2026-04-25 11:27 23.55512 57.01920 34953 ft 506 kts 169°
2026-04-25 11:27 23.49812 57.03444 34960 ft 507 kts 169°
2026-04-25 11:28 23.41778 57.05523 34975 ft 506 kts 174°
2026-04-25 11:28 23.34784 57.05839 35285 ft 503 kts 188°
2026-04-25 11:29 23.31332 57.05353 35586 ft 498 kts 195°
2026-04-25 11:29 23.27940 57.04548 35858 ft 497 kts 197°
2026-04-25 11:29 23.21152 57.02850 35958 ft 503 kts 197°
2026-04-25 11:30 23.14373 57.01208 35981 ft 499 kts 197°
2026-04-25 11:30 23.07602 56.99616 35984 ft 496 kts 197°
2026-04-25 11:31 23.00856 56.98037 35988 ft 496 kts 197°
2026-04-25 11:31 22.94102 56.96454 35983 ft 496 kts 197°
2026-04-25 11:32 22.87352 56.94847 35965 ft 494 kts 200°
2026-04-25 11:32 22.84244 56.93427 35964 ft 482 kts 217°
2026-04-25 11:32 22.81666 56.91173 35977 ft 473 kts 231°
2026-04-25 11:33 22.79678 56.88361 35959 ft 465 kts 245°
2026-04-25 11:33 22.78196 56.85248 35953 ft 465 kts 247°
2026-04-25 11:33 22.75291 56.78948 35959 ft 468 kts 247°
2026-04-25 11:34 22.72320 56.72649 35944 ft 470 kts 246°
2026-04-25 11:34 22.69295 56.66357 35933 ft 472 kts 246°
2026-04-25 11:35 22.66285 56.60127 35922 ft 471 kts 246°
2026-04-25 11:35 22.63246 56.53836 35913 ft 470 kts 246°
2026-04-25 11:36 22.60209 56.47554 35906 ft 469 kts 246°
2026-04-25 11:36 22.57185 56.41302 35906 ft 467 kts 246°
2026-04-25 11:37 22.54171 56.35082 35895 ft 466 kts 246°
2026-04-25 11:37 22.51172 56.28894 35893 ft 465 kts 246°
2026-04-25 11:38 22.48161 56.22687 35886 ft 464 kts 246°
2026-04-25 11:38 22.45156 56.16496 35884 ft 464 kts 246°
2026-04-25 11:39 22.42164 56.10342 35878 ft 464 kts 246°
2026-04-25 11:39 22.39157 56.04161 35875 ft 464 kts 246°
2026-04-25 11:40 22.36167 55.98040 35867 ft 464 kts 246°
2026-04-25 11:40 22.33138 55.91877 35868 ft 464 kts 246°
2026-04-25 11:41 22.30107 55.85714 35864 ft 464 kts 246°
2026-04-25 11:41 22.27082 55.79564 35862 ft 464 kts 246°
2026-04-25 11:42 22.24052 55.73403 35860 ft 464 kts 246°
2026-04-25 11:42 22.21027 55.67236 35855 ft 464 kts 246°
2026-04-25 11:43 22.18035 55.61120 35846 ft 462 kts 249°
2026-04-25 11:43 22.15909 55.54641 35850 ft 455 kts 259°
2026-04-25 11:44 22.14913 55.47951 35848 ft 450 kts 268°
2026-04-25 11:44 22.14394 55.41210 35845 ft 450 kts 268°
2026-04-25 11:45 22.13885 55.34530 35839 ft 450 kts 268°
2026-04-25 11:45 22.13347 55.27804 35841 ft 450 kts 268°
2026-04-25 11:46 22.12792 55.21068 35835 ft 450 kts 268°
2026-04-25 11:46 22.12232 55.14366 35834 ft 450 kts 268°
2026-04-25 11:47 22.11665 55.07625 35828 ft 450 kts 268°
2026-04-25 11:47 22.11097 55.00891 35828 ft 450 kts 268°
2026-04-25 11:48 22.10530 54.94187 35833 ft 450 kts 268°
2026-04-25 11:48 22.09959 54.87472 35831 ft 451 kts 268°
2026-04-25 11:49 22.09383 54.80729 35820 ft 450 kts 268°
2026-04-25 11:49 22.08805 54.74009 35829 ft 450 kts 268°
2026-04-25 11:50 22.08227 54.67312 35832 ft 450 kts 268°
2026-04-25 11:50 22.07643 54.60574 35830 ft 450 kts 268°
2026-04-25 11:51 22.07058 54.53869 35825 ft 450 kts 267°
2026-04-25 11:51 22.06472 54.47165 35830 ft 450 kts 267°
2026-04-25 11:52 22.05880 54.40438 35831 ft 450 kts 267°
2026-04-25 11:52 22.05285 54.33714 35830 ft 450 kts 267°
2026-04-25 11:53 22.04691 54.27022 35827 ft 450 kts 267°
2026-04-25 11:53 22.04090 54.20292 35834 ft 450 kts 267°
2026-04-25 11:54 22.03492 54.13615 35829 ft 451 kts 267°
2026-04-25 11:55 22.02580 54.03500 35832 ft 451 kts 267°
2026-04-25 11:55 22.02074 53.97910 35834 ft 451 kts 267°
2026-04-25 11:56 22.01461 53.91181 35831 ft 451 kts 267°
2026-04-25 11:56 22.00847 53.84456 35828 ft 452 kts 266°
2026-04-25 11:57 22.00227 53.77719 35836 ft 452 kts 266°
2026-04-25 11:57 21.99604 53.70955 35821 ft 452 kts 266°
2026-04-25 11:58 21.98979 53.64205 35833 ft 453 kts 266°
2026-04-25 11:58 21.98354 53.57487 35839 ft 453 kts 266°
2026-04-25 11:59 21.97720 53.50717 35832 ft 454 kts 266°
2026-04-25 11:59 21.97084 53.43947 35847 ft 454 kts 266°
2026-04-25 12:00 21.96125 53.33799 35840 ft 454 kts 266°
2026-04-25 12:01 21.95162 53.23677 35850 ft 454 kts 266°
2026-04-25 12:01 21.94514 53.16893 35837 ft 453 kts 266°
2026-04-25 12:02 21.93544 53.06800 35839 ft 453 kts 266°
2026-04-25 12:02 21.92892 53.00059 35839 ft 453 kts 266°
2026-04-25 12:03 21.92237 52.93308 35834 ft 452 kts 266°
2026-04-25 12:03 21.91580 52.86569 35845 ft 452 kts 266°
2026-04-25 12:04 21.90922 52.79837 35848 ft 452 kts 266°
2026-04-25 12:04 21.90378 52.73087 35831 ft 449 kts 271°
2026-04-25 12:05 21.90739 52.66433 35853 ft 447 kts 279°
2026-04-25 12:05 21.91885 52.59882 35839 ft 445 kts 282°
2026-04-25 12:06 21.93123 52.53358 35849 ft 445 kts 282°
2026-04-25 12:06 21.94347 52.46822 35840 ft 444 kts 282°
2026-04-25 12:07 21.95546 52.40315 35842 ft 444 kts 282°
2026-04-25 12:07 21.96736 52.33805 35841 ft 444 kts 282°
2026-04-25 12:08 21.97923 52.27291 35839 ft 443 kts 282°
2026-04-25 12:08 21.99109 52.20765 35856 ft 443 kts 282°
2026-04-25 12:09 22.00292 52.14248 35846 ft 443 kts 282°
2026-04-25 12:09 22.01475 52.07711 35847 ft 443 kts 282°
2026-04-25 12:10 22.02654 52.01187 35848 ft 443 kts 282°
2026-04-25 12:10 22.03831 51.94650 35851 ft 443 kts 282°
2026-04-25 12:11 22.04997 51.88167 35867 ft 443 kts 282°
2026-04-25 12:11 22.06163 51.81660 35850 ft 442 kts 282°
2026-04-25 12:12 22.07140 51.76203 35848 ft 441 kts 282°
2026-04-25 12:12 22.08485 51.68667 35855 ft 440 kts 281°
2026-04-25 12:13 22.09640 51.62183 35850 ft 440 kts 281°
2026-04-25 12:13 22.10790 51.55710 35852 ft 439 kts 281°
2026-04-25 12:14 22.11936 51.49239 35862 ft 439 kts 281°
2026-04-25 12:14 22.13073 51.42808 35862 ft 438 kts 281°
2026-04-25 12:15 22.14211 51.36355 35861 ft 438 kts 281°
2026-04-25 12:15 22.15348 51.29895 35865 ft 438 kts 281°
2026-04-25 12:16 22.16483 51.23427 35865 ft 438 kts 281°
2026-04-25 12:16 22.17615 51.16964 35861 ft 438 kts 281°
2026-04-25 12:17 22.18743 51.10504 35881 ft 438 kts 281°
2026-04-25 12:17 22.19870 51.04039 35866 ft 439 kts 281°
2026-04-25 12:18 22.20995 50.97567 35867 ft 439 kts 281°
2026-04-25 12:18 22.21928 50.92186 35868 ft 439 kts 281°
2026-04-25 12:19 22.23797 50.81378 35863 ft 439 kts 281°
2026-04-25 12:20 22.24918 50.74875 35863 ft 439 kts 281°
2026-04-25 12:20 22.26026 50.68427 35865 ft 439 kts 281°
2026-04-25 12:21 22.27139 50.61937 35882 ft 439 kts 281°
2026-04-25 12:21 22.28247 50.55463 35880 ft 439 kts 281°
2026-04-25 12:22 22.29354 50.48975 35867 ft 439 kts 281°
2026-04-25 12:22 22.30463 50.42459 35867 ft 439 kts 281°
2026-04-25 12:23 22.31554 50.36032 35871 ft 439 kts 281°
2026-04-25 12:23 22.32657 50.29521 35870 ft 438 kts 281°
2026-04-25 12:24 22.33751 50.23049 35869 ft 438 kts 281°
2026-04-25 12:24 22.34842 50.16575 35871 ft 437 kts 281°
2026-04-25 12:25 22.35921 50.10155 35876 ft 437 kts 281°
2026-04-25 12:25 22.37001 50.03714 35872 ft 436 kts 281°
2026-04-25 12:26 22.38074 49.97298 35874 ft 436 kts 281°
2026-04-25 12:26 22.39157 49.90805 35870 ft 435 kts 281°
2026-04-25 12:27 22.40228 49.84370 35871 ft 435 kts 281°
2026-04-25 12:27 22.41295 49.77941 35870 ft 435 kts 281°
2026-04-25 12:28 22.42362 49.71499 35876 ft 434 kts 281°
2026-04-25 12:28 22.43424 49.65069 35872 ft 434 kts 281°
2026-04-25 12:29 22.44476 49.58684 35873 ft 434 kts 281°
2026-04-25 12:29 22.45531 49.52265 35873 ft 434 kts 281°
2026-04-25 12:30 22.46582 49.45848 35875 ft 433 kts 281°
2026-04-25 12:30 22.47632 49.39428 35878 ft 433 kts 281°
2026-04-25 12:31 22.48677 49.33020 35878 ft 433 kts 281°
2026-04-25 12:31 22.49718 49.26617 35877 ft 433 kts 281°
2026-04-25 12:32 22.50759 49.20198 35878 ft 432 kts 281°
2026-04-25 12:32 22.51793 49.13808 35879 ft 432 kts 281°
2026-04-25 12:33 22.52828 49.07399 35880 ft 432 kts 281°
2026-04-25 12:33 22.53859 49.00992 35882 ft 431 kts 281°
2026-04-25 12:34 22.54879 48.94637 35880 ft 431 kts 280°
2026-04-25 12:34 22.55899 48.88268 35880 ft 430 kts 280°
2026-04-25 12:35 22.56918 48.81887 35880 ft 430 kts 280°
2026-04-25 12:35 22.57936 48.75494 35883 ft 430 kts 280°
2026-04-25 12:36 22.58943 48.69159 35886 ft 429 kts 280°
2026-04-25 12:36 22.59957 48.62756 35886 ft 429 kts 280°
2026-04-25 12:37 22.60963 48.56394 35888 ft 429 kts 280°
2026-04-25 12:37 22.61958 48.50080 35886 ft 428 kts 280°
2026-04-25 12:38 22.62959 48.43713 35889 ft 428 kts 280°
2026-04-25 12:38 22.63955 48.37360 35890 ft 428 kts 280°
2026-04-25 12:39 22.64949 48.31002 35890 ft 428 kts 280°
2026-04-25 12:39 22.65940 48.24649 35891 ft 428 kts 280°
2026-04-25 12:40 22.66929 48.18288 35888 ft 428 kts 280°
2026-04-25 12:40 22.67909 48.11968 35889 ft 428 kts 280°
2026-04-25 12:41 22.68734 48.06642 35890 ft 428 kts 280°
2026-04-25 12:41 22.69594 47.99217 35895 ft 428 kts 276°
2026-04-25 12:42 22.70029 47.93878 35892 ft 428 kts 276°
2026-04-25 12:42 22.70552 47.87421 35893 ft 427 kts 276°
2026-04-25 12:43 22.71079 47.81039 35898 ft 427 kts 276°
2026-04-25 12:43 22.71875 47.71423 35896 ft 427 kts 276°
2026-04-25 12:44 22.72403 47.65016 35898 ft 427 kts 276°
2026-04-25 12:45 22.73191 47.55392 35908 ft 427 kts 276°
2026-04-25 12:45 22.73972 47.45778 35911 ft 427 kts 276°
2026-04-25 12:46 22.74488 47.39383 35912 ft 427 kts 276°
2026-04-25 12:46 22.75003 47.32981 35918 ft 426 kts 276°
2026-04-25 12:47 22.75514 47.26586 35925 ft 426 kts 276°
2026-04-25 12:47 22.76024 47.20169 35926 ft 426 kts 276°
2026-04-25 12:48 22.76531 47.13786 35929 ft 426 kts 276°
2026-04-25 12:48 22.77038 47.07410 35930 ft 426 kts 276°
2026-04-25 12:49 22.77546 47.01000 35932 ft 426 kts 276°
2026-04-25 12:49 22.78048 46.94623 35934 ft 426 kts 276°
2026-04-25 12:50 22.78548 46.88227 35938 ft 426 kts 276°
2026-04-25 12:50 22.79044 46.81862 35937 ft 426 kts 276°
2026-04-25 12:51 22.79542 46.75435 35943 ft 425 kts 276°
2026-04-25 12:51 22.80031 46.69094 35941 ft 425 kts 276°
2026-04-25 12:52 22.80519 46.62720 35946 ft 425 kts 275°
2026-04-25 12:52 22.81008 46.56314 35952 ft 424 kts 275°
2026-04-25 12:53 22.81490 46.49954 35949 ft 424 kts 275°
2026-04-25 12:53 22.81973 46.43568 35955 ft 424 kts 275°
2026-04-25 12:54 22.82451 46.37194 35949 ft 424 kts 275°
2026-04-25 12:54 22.82921 46.30853 35948 ft 424 kts 275°
2026-04-25 12:55 22.83313 46.25543 35952 ft 424 kts 275°
2026-04-25 12:55 22.83859 46.18098 35942 ft 423 kts 275°
2026-04-25 12:56 22.84320 46.11779 35943 ft 423 kts 275°
2026-04-25 12:56 22.84785 46.05382 35930 ft 423 kts 275°
2026-04-25 12:57 22.85243 45.99045 35932 ft 423 kts 275°
2026-04-25 12:57 22.85702 45.92660 35929 ft 423 kts 275°
2026-04-25 12:58 22.86152 45.86350 35922 ft 423 kts 275°
2026-04-25 12:58 22.86605 45.79979 35920 ft 423 kts 275°
2026-04-25 12:59 22.87051 45.73655 35921 ft 422 kts 275°
2026-04-25 12:59 22.87497 45.67310 35921 ft 422 kts 275°
2026-04-25 13:00 22.87866 45.62024 35917 ft 422 kts 275°
2026-04-25 13:00 22.88381 45.54617 35919 ft 422 kts 275°
2026-04-25 13:01 22.88819 45.48271 35919 ft 422 kts 275°
2026-04-25 13:01 22.89257 45.41875 35918 ft 422 kts 275°
2026-04-25 13:02 22.89689 45.35547 35918 ft 422 kts 275°
2026-04-25 13:02 22.90119 45.29210 35917 ft 422 kts 275°
2026-04-25 13:03 22.90549 45.22833 35916 ft 423 kts 275°
2026-04-25 13:03 22.90974 45.16487 35918 ft 422 kts 275°
2026-04-25 13:04 22.91399 45.10118 35916 ft 422 kts 275°
2026-04-25 13:04 22.91816 45.03805 35919 ft 422 kts 275°
2026-04-25 13:05 22.92232 44.97459 35921 ft 421 kts 275°
2026-04-25 13:05 22.92647 44.91113 35915 ft 422 kts 275°
2026-04-25 13:06 22.93059 44.84761 35920 ft 422 kts 275°
2026-04-25 13:06 22.93469 44.78407 35916 ft 422 kts 275°
2026-04-25 13:07 22.93876 44.72065 35915 ft 422 kts 275°
2026-04-25 13:07 22.94761 44.65808 35922 ft 422 kts 282°
2026-04-25 13:08 22.96430 44.59662 35916 ft 423 kts 287°
2026-04-25 13:08 22.98309 44.53655 35916 ft 423 kts 287°
2026-04-25 13:09 23.00193 44.47613 35913 ft 423 kts 287°
2026-04-25 13:09 23.02067 44.41549 35914 ft 423 kts 287°
2026-04-25 13:10 23.03931 44.35493 35913 ft 423 kts 287°
2026-04-25 13:10 23.05792 44.29431 35913 ft 422 kts 287°
2026-04-25 13:11 23.07633 44.23425 35907 ft 422 kts 287°
2026-04-25 13:11 23.09483 44.17378 35912 ft 422 kts 287°
2026-04-25 13:12 23.11331 44.11331 35911 ft 422 kts 287°
2026-04-25 13:12 23.12869 44.06292 35907 ft 422 kts 287°
2026-04-25 13:13 23.15029 43.99206 35915 ft 422 kts 286°
2026-04-25 13:13 23.16870 43.93153 35915 ft 422 kts 286°
2026-04-25 13:14 23.18713 43.87086 35915 ft 422 kts 286°
2026-04-25 13:14 23.20548 43.81034 35922 ft 422 kts 286°
2026-04-25 13:15 23.22379 43.74987 35925 ft 423 kts 286°
2026-04-25 13:15 23.24216 43.68913 35930 ft 423 kts 286°
2026-04-25 13:16 23.26051 43.62834 35938 ft 423 kts 286°
2026-04-25 13:16 23.27879 43.56770 35941 ft 423 kts 286°
2026-04-25 13:17 23.29708 43.50695 35946 ft 422 kts 286°
2026-04-25 13:17 23.31532 43.44626 35950 ft 422 kts 286°
2026-04-25 13:18 23.33348 43.38575 35953 ft 422 kts 286°
2026-04-25 13:18 23.35174 43.32480 35958 ft 421 kts 286°
2026-04-25 13:19 23.36980 43.26442 35963 ft 421 kts 286°
2026-04-25 13:19 23.38190 43.22390 35963 ft 421 kts 286°
2026-04-25 13:20 23.40603 43.14303 35972 ft 421 kts 286°
2026-04-25 13:20 23.42409 43.08228 35967 ft 421 kts 285°
2026-04-25 13:21 23.44203 43.02177 35980 ft 421 kts 285°
2026-04-25 13:21 23.46004 42.96092 35972 ft 422 kts 285°
2026-04-25 13:22 23.47797 42.90025 35977 ft 422 kts 285°
2026-04-25 13:23 23.50500 42.80865 35980 ft 423 kts 285°
2026-04-25 13:23 23.52293 42.74774 35980 ft 423 kts 285°
2026-04-25 13:24 23.54093 42.68665 35977 ft 424 kts 285°
2026-04-25 13:24 23.55903 42.62517 35970 ft 424 kts 285°
2026-04-25 13:25 23.57694 42.56422 35970 ft 425 kts 285°
2026-04-25 13:25 23.59498 42.50271 35971 ft 425 kts 285°
2026-04-25 13:26 23.61298 42.44123 35970 ft 425 kts 285°
2026-04-25 13:26 23.63087 42.38004 35974 ft 425 kts 285°
2026-04-25 13:27 23.64885 42.31845 35972 ft 425 kts 285°
2026-04-25 13:27 23.66381 42.26708 35976 ft 425 kts 285°
2026-04-25 13:28 23.68165 42.20558 35980 ft 425 kts 285°
2026-04-25 13:28 23.69939 42.14430 35984 ft 425 kts 285°
2026-04-25 13:29 23.71728 42.08241 35987 ft 425 kts 285°
2026-04-25 13:29 23.73499 42.02104 35989 ft 425 kts 285°
2026-04-25 13:30 23.76160 41.92890 36005 ft 425 kts 285°
2026-04-25 13:31 23.78824 41.83666 36013 ft 426 kts 285°
2026-04-25 13:31 23.80601 41.77496 36013 ft 426 kts 285°
2026-04-25 13:32 23.82379 41.71307 36018 ft 426 kts 285°
2026-04-25 13:32 23.84148 41.65137 36027 ft 426 kts 285°
2026-04-25 13:33 23.85900 41.59018 36021 ft 426 kts 285°
2026-04-25 13:33 23.87668 41.52826 36018 ft 426 kts 284°
2026-04-25 13:34 23.89418 41.46659 36021 ft 426 kts 284°
2026-04-25 13:34 23.91170 41.40479 36010 ft 426 kts 284°
2026-04-25 13:35 23.92926 41.34279 36013 ft 426 kts 284°
2026-04-25 13:35 23.94681 41.28092 36006 ft 426 kts 284°
2026-04-25 13:36 23.96421 41.21950 36006 ft 426 kts 284°
2026-04-25 13:36 23.98174 41.15752 35998 ft 426 kts 284°
2026-04-25 13:37 23.99921 41.09561 35995 ft 426 kts 284°
2026-04-25 13:37 24.01664 41.03372 35993 ft 426 kts 284°
2026-04-25 13:38 24.03401 40.97197 35987 ft 426 kts 284°
2026-04-25 13:38 24.05145 40.90989 35976 ft 426 kts 284°
2026-04-25 13:39 24.06882 40.84795 35977 ft 426 kts 284°
2026-04-25 13:39 24.08611 40.78618 35974 ft 426 kts 284°
2026-04-25 13:40 24.10351 40.72388 35966 ft 425 kts 284°
2026-04-25 13:40 24.12076 40.66204 35966 ft 425 kts 284°
2026-04-25 13:41 24.13803 40.60000 35952 ft 425 kts 284°
2026-04-25 13:41 24.15530 40.53842 35944 ft 426 kts 285°
2026-04-25 13:42 24.17862 40.47845 35941 ft 431 kts 294°
2026-04-25 13:42 24.20671 40.42056 35941 ft 431 kts 294°
2026-04-25 13:43 24.23479 40.36243 35930 ft 432 kts 293°
2026-04-25 13:43 24.26261 40.30445 35929 ft 432 kts 293°
2026-04-25 13:44 24.29071 40.24570 35925 ft 432 kts 293°
2026-04-25 13:44 24.31860 40.18729 35924 ft 432 kts 293°
2026-04-25 13:45 24.34652 40.12876 35926 ft 432 kts 293°
2026-04-25 13:45 24.37417 40.07073 35914 ft 432 kts 293°
2026-04-25 13:46 24.40213 40.01197 35908 ft 432 kts 293°
2026-04-25 13:46 24.42986 39.95363 35904 ft 431 kts 293°
2026-04-25 13:47 24.45732 39.89576 35897 ft 431 kts 293°
2026-04-25 13:47 24.48503 39.83731 35898 ft 430 kts 293°
2026-04-25 13:48 24.51255 39.77918 35885 ft 430 kts 292°
2026-04-25 13:48 24.54459 39.72326 35891 ft 437 kts 303°
2026-04-25 13:49 24.58653 39.67416 35893 ft 445 kts 311°
2026-04-25 13:49 24.63632 39.63284 35889 ft 450 kts 316°
2026-04-25 13:50 24.68754 39.59292 35899 ft 449 kts 316°
2026-04-25 13:50 24.73792 39.55322 35909 ft 449 kts 316°
2026-04-25 13:51 24.78846 39.51290 35908 ft 447 kts 316°
2026-04-25 13:51 24.83873 39.47261 35917 ft 447 kts 315°
2026-04-25 13:52 24.88889 39.43237 35908 ft 446 kts 315°
2026-04-25 13:52 24.93900 39.39215 35919 ft 445 kts 315°
2026-04-25 13:53 24.98909 39.35190 35916 ft 444 kts 315°
2026-04-25 13:53 25.03910 39.31169 35915 ft 444 kts 315°
2026-04-25 13:54 25.08881 39.27166 35902 ft 443 kts 315°
2026-04-25 13:54 25.13857 39.23154 35902 ft 442 kts 315°
2026-04-25 13:55 25.18771 39.19115 35898 ft 436 kts 311°
2026-04-25 13:55 25.22987 39.14413 35898 ft 427 kts 303°
2026-04-25 13:56 25.26535 39.09183 35901 ft 425 kts 297°
2026-04-25 13:56 25.29722 39.03706 35888 ft 426 kts 296°
2026-04-25 13:57 25.32912 38.98182 35886 ft 426 kts 296°
2026-04-25 13:57 25.36113 38.92673 35871 ft 426 kts 296°
2026-04-25 13:58 25.39317 38.87175 35857 ft 425 kts 296°
2026-04-25 13:58 25.42519 38.81682 35866 ft 424 kts 296°
2026-04-25 13:59 25.45707 38.76208 35854 ft 423 kts 296°
2026-04-25 13:59 25.48884 38.70746 35848 ft 422 kts 296°
2026-04-25 14:00 25.51500 38.66242 35851 ft 421 kts 296°
2026-04-25 14:00 25.55218 38.59832 35850 ft 420 kts 296°
2026-04-25 14:01 25.58362 38.54405 35850 ft 420 kts 296°
2026-04-25 14:01 25.61501 38.48983 35850 ft 420 kts 296°
2026-04-25 14:02 25.64647 38.43540 35850 ft 419 kts 296°
2026-04-25 14:02 25.67795 38.38088 35851 ft 419 kts 296°
2026-04-25 14:03 25.70932 38.32650 35856 ft 418 kts 295°
2026-04-25 14:03 25.74067 38.27206 35852 ft 418 kts 295°
2026-04-25 14:04 25.77196 38.21768 35846 ft 417 kts 295°
2026-04-25 14:04 25.80301 38.16365 35858 ft 417 kts 295°
2026-04-25 14:05 25.83415 38.10941 35869 ft 415 kts 295°
2026-04-25 14:05 25.86517 38.05531 35872 ft 415 kts 295°
2026-04-25 14:06 25.89604 38.00139 35881 ft 415 kts 295°
2026-04-25 14:06 25.92718 37.94694 35891 ft 415 kts 295°
2026-04-25 14:07 25.95808 37.89289 35895 ft 415 kts 295°
2026-04-25 14:07 25.98671 37.83765 35902 ft 408 kts 288°
2026-04-25 14:08 26.00625 37.77889 35911 ft 404 kts 283°
2026-04-25 14:08 26.01804 37.71852 35900 ft 401 kts 276°
2026-04-25 14:09 26.02599 37.65696 35899 ft 401 kts 276°
2026-04-25 14:09 26.03411 37.59551 35901 ft 403 kts 276°
2026-04-25 14:10 26.04242 37.53398 35901 ft 404 kts 276°
2026-04-25 14:10 26.05076 37.47212 35902 ft 405 kts 276°
2026-04-25 14:11 26.05908 37.40996 35890 ft 407 kts 276°
2026-04-25 14:11 26.06739 37.34789 35890 ft 403 kts 275°
2026-04-25 14:12 26.07551 37.28683 35880 ft 400 kts 275°
2026-04-25 14:12 26.08357 37.22601 35991 ft 399 kts 276°
2026-04-25 14:12 26.08630 37.20541 36110 ft 401 kts 275°
2026-04-25 14:13 26.09031 37.17503 36378 ft 401 kts 275°
2026-04-25 14:13 26.09433 37.14459 36677 ft 400 kts 276°
2026-04-25 14:13 26.09839 37.11377 36973 ft 399 kts 276°
2026-04-25 14:13 26.10238 37.08335 37269 ft 399 kts 276°
2026-04-25 14:14 26.10639 37.05282 37565 ft 398 kts 276°
2026-04-25 14:14 26.11035 37.02267 37779 ft 398 kts 276°
2026-04-25 14:14 26.11439 36.99178 37807 ft 400 kts 276°
2026-04-25 14:15 26.12237 36.93068 37855 ft 398 kts 276°
2026-04-25 14:15 26.13026 36.87009 37868 ft 396 kts 276°
2026-04-25 14:16 26.13810 36.80963 37862 ft 395 kts 275°
2026-04-25 14:16 26.14592 36.74907 37862 ft 394 kts 275°
2026-04-25 14:17 26.15370 36.68866 37861 ft 394 kts 275°
2026-04-25 14:17 26.16144 36.62836 37860 ft 394 kts 275°
2026-04-25 14:18 26.16914 36.56819 37859 ft 394 kts 275°
2026-04-25 14:18 26.18354 36.50903 37867 ft 402 kts 289°
2026-04-25 14:19 26.21044 36.45381 37858 ft 410 kts 297°
2026-04-25 14:19 26.24916 36.40554 37858 ft 421 kts 305°
2026-04-25 14:20 26.29044 36.35923 37861 ft 420 kts 305°
2026-04-25 14:20 26.33143 36.31279 37863 ft 418 kts 305°
2026-04-25 14:21 26.37189 36.26632 37863 ft 417 kts 304°
2026-04-25 14:21 26.41206 36.21991 37858 ft 416 kts 304°
2026-04-25 14:22 26.45228 36.17335 37859 ft 415 kts 304°
2026-04-25 14:22 26.49200 36.12734 37860 ft 414 kts 304°
2026-04-25 14:23 26.53220 36.08073 37861 ft 414 kts 304°
2026-04-25 14:23 26.57176 36.03481 37864 ft 413 kts 304°
2026-04-25 14:24 26.61150 35.98864 37871 ft 413 kts 304°
2026-04-25 14:24 26.65175 35.94182 37868 ft 413 kts 304°
2026-04-25 14:25 26.69156 35.89547 37867 ft 413 kts 304°
2026-04-25 14:25 26.73135 35.84908 37863 ft 413 kts 304°
2026-04-25 14:26 26.77113 35.80267 37851 ft 413 kts 304°
2026-04-25 14:26 26.81072 35.75644 37859 ft 413 kts 304°
2026-04-25 14:27 26.85054 35.70990 37865 ft 413 kts 304°
2026-04-25 14:27 26.89035 35.66331 37868 ft 413 kts 304°
2026-04-25 14:28 26.93012 35.61672 37868 ft 413 kts 304°
2026-04-25 14:28 26.96956 35.57046 37864 ft 413 kts 303°
2026-04-25 14:29 27.00924 35.52385 37869 ft 413 kts 303°
2026-04-25 14:29 27.04887 35.47727 37868 ft 413 kts 303°
2026-04-25 14:30 27.08832 35.43085 37869 ft 413 kts 303°
2026-04-25 14:30 27.14743 35.36118 37867 ft 412 kts 303°
2026-04-25 14:31 27.18738 35.31403 37864 ft 412 kts 303°
2026-04-25 14:31 27.22667 35.26762 37867 ft 412 kts 303°
2026-04-25 14:32 27.26612 35.22096 37864 ft 412 kts 303°
2026-04-25 14:32 27.30558 35.17423 37863 ft 411 kts 303°
2026-04-25 14:33 27.34490 35.12762 37862 ft 411 kts 303°
2026-04-25 14:33 27.38440 35.08075 37859 ft 411 kts 303°
2026-04-25 14:34 27.42381 35.03392 37858 ft 411 kts 303°
2026-04-25 14:34 27.46313 34.98715 37862 ft 411 kts 303°
2026-04-25 14:35 27.50217 34.94068 37853 ft 411 kts 303°
2026-04-25 14:35 27.54338 34.89519 37852 ft 416 kts 306°
2026-04-25 14:36 27.58576 34.85074 37853 ft 417 kts 306°
2026-04-25 14:36 27.62821 34.80618 37856 ft 417 kts 306°
2026-04-25 14:37 27.67055 34.76148 37861 ft 417 kts 306°
2026-04-25 14:37 27.71290 34.71663 37851 ft 417 kts 306°
2026-04-25 14:38 27.75514 34.67185 37857 ft 417 kts 306°
2026-04-25 14:38 27.79749 34.62690 37861 ft 417 kts 306°
2026-04-25 14:39 27.83934 34.58243 37870 ft 417 kts 306°
2026-04-25 14:39 27.88163 34.53744 37877 ft 417 kts 306°
2026-04-25 14:40 27.92380 34.49253 37883 ft 417 kts 306°
2026-04-25 14:40 27.96598 34.44755 37888 ft 417 kts 306°
2026-04-25 14:41 28.00692 34.40154 37892 ft 409 kts 301°
2026-04-25 14:41 28.04268 34.35210 37899 ft 406 kts 300°
2026-04-25 14:42 28.06640 34.31912 37888 ft 407 kts 300°
2026-04-25 14:42 28.11407 34.25299 37896 ft 407 kts 300°
2026-04-25 14:43 28.14985 34.20337 37893 ft 408 kts 300°
2026-04-25 14:43 28.18579 34.15347 37894 ft 409 kts 300°
2026-04-25 14:44 28.22192 34.10330 37906 ft 411 kts 300°
2026-04-25 14:44 28.25820 34.05285 37881 ft 413 kts 300°
2026-04-25 14:45 28.29421 34.00273 37887 ft 413 kts 301°
2026-04-25 14:45 28.33052 33.95216 37860 ft 411 kts 300°
2026-04-25 14:46 28.36684 33.90148 37891 ft 411 kts 300°
2026-04-25 14:46 28.40268 33.85138 37883 ft 411 kts 300°
2026-04-25 14:47 28.42675 33.81769 37889 ft 411 kts 300°
2026-04-25 14:47 28.47470 33.75054 37894 ft 412 kts 300°
2026-04-25 14:48 28.51101 33.69961 37889 ft 414 kts 300°
2026-04-25 14:48 28.54709 33.64894 37897 ft 414 kts 300°
2026-04-25 14:49 28.58368 33.59749 37885 ft 415 kts 300°
2026-04-25 14:49 28.61975 33.54676 37892 ft 414 kts 300°
2026-04-25 14:50 28.65586 33.49588 37896 ft 413 kts 300°
2026-04-25 14:50 28.69200 33.44493 37889 ft 411 kts 300°
2026-04-25 14:51 28.72766 33.39459 37876 ft 410 kts 300°
2026-04-25 14:51 28.76336 33.34409 37872 ft 409 kts 300°
2026-04-25 14:52 28.79910 33.29348 37869 ft 409 kts 300°
2026-04-25 14:52 28.82296 33.25965 37881 ft 410 kts 300°
2026-04-25 14:53 28.87062 33.19201 37872 ft 411 kts 300°
2026-04-25 14:53 28.90647 33.14107 37863 ft 412 kts 300°
2026-04-25 14:54 28.94246 33.08986 37868 ft 413 kts 300°
2026-04-25 14:54 28.97819 33.03896 37863 ft 414 kts 300°
2026-04-25 14:55 29.01426 32.98752 37862 ft 415 kts 300°
2026-04-25 14:55 29.05027 32.93609 37861 ft 415 kts 300°
2026-04-25 14:56 29.08037 32.89306 37858 ft 416 kts 300°
2026-04-25 14:56 29.11646 32.84140 37867 ft 416 kts 300°
2026-04-25 14:57 29.15269 32.78948 37867 ft 417 kts 300°
2026-04-25 14:57 29.18883 32.73762 37869 ft 417 kts 300°
2026-04-25 14:58 29.22507 32.68555 37869 ft 417 kts 300°
2026-04-25 14:58 29.26106 32.63377 37867 ft 417 kts 300°
2026-04-25 14:59 29.29728 32.58153 37870 ft 418 kts 300°
2026-04-25 14:59 29.33288 32.52974 37874 ft 418 kts 300°
2026-04-25 15:00 29.36885 32.47722 37856 ft 419 kts 300°
2026-04-25 15:00 29.40510 32.42433 37872 ft 419 kts 300°
2026-04-25 15:01 29.44097 32.37195 37884 ft 419 kts 300°
2026-04-25 15:01 29.47698 32.31927 37888 ft 419 kts 300°
2026-04-25 15:02 29.51284 32.26675 37894 ft 418 kts 300°
2026-04-25 15:02 29.54866 32.21427 37892 ft 417 kts 300°
2026-04-25 15:03 29.58437 32.16182 37902 ft 417 kts 300°
2026-04-25 15:03 29.62009 32.10926 37899 ft 417 kts 300°
2026-04-25 15:04 29.65585 32.05660 37885 ft 417 kts 300°
2026-04-25 15:04 29.69134 32.00428 37886 ft 418 kts 300°
2026-04-25 15:05 29.72733 31.95116 37896 ft 418 kts 300°
2026-04-25 15:06 29.78085 31.87205 37893 ft 419 kts 300°
2026-04-25 15:06 29.81600 31.81851 37882 ft 419 kts 298°
2026-04-25 15:07 29.85037 31.76500 37883 ft 419 kts 298°
2026-04-25 15:07 29.88534 31.71060 37880 ft 419 kts 298°
2026-04-25 15:08 29.92018 31.65652 37882 ft 419 kts 298°
2026-04-25 15:08 29.95493 31.60254 37884 ft 419 kts 298°
2026-04-25 15:09 29.98963 31.54856 37848 ft 420 kts 298°
2026-04-25 15:09 30.04184 31.46723 37839 ft 420 kts 298°
2026-04-25 15:10 30.07675 31.41283 37822 ft 422 kts 299°
2026-04-25 15:10 30.11594 31.36228 37828 ft 433 kts 308°
2026-04-25 15:11 30.13807 31.33861 37831 ft 433 kts 308°
2026-04-25 15:11 30.18250 31.29136 37839 ft 434 kts 308°
2026-04-25 15:12 30.24893 31.22028 37841 ft 434 kts 308°
2026-04-25 15:12 30.27850 31.18847 37846 ft 434 kts 308°
2026-04-25 15:13 30.35952 31.10110 37841 ft 435 kts 308°
2026-04-25 15:14 30.40374 31.05333 37833 ft 435 kts 308°
2026-04-25 15:14 30.44775 31.00572 37841 ft 435 kts 308°
2026-04-25 15:15 30.49202 30.95777 37837 ft 435 kts 308°
2026-04-25 15:15 30.53637 30.90966 37840 ft 436 kts 308°
2026-04-25 15:16 30.58069 30.86154 37838 ft 436 kts 308°
2026-04-25 15:16 30.64708 30.78933 37834 ft 437 kts 308°
2026-04-25 15:17 30.71361 30.71681 37821 ft 438 kts 308°
2026-04-25 15:18 30.75810 30.66824 37822 ft 438 kts 308°
2026-04-25 15:18 30.82471 30.59540 37818 ft 439 kts 308°
2026-04-25 15:19 30.85425 30.56305 37816 ft 439 kts 308°
2026-04-25 15:19 30.91350 30.49809 37817 ft 440 kts 308°
2026-04-25 15:20 30.95815 30.44904 37821 ft 441 kts 308°
2026-04-25 15:20 31.00286 30.39986 37821 ft 441 kts 308°
2026-04-25 15:21 31.04755 30.35066 37817 ft 442 kts 308°
2026-04-25 15:21 31.08513 30.29613 37827 ft 427 kts 294°
2026-04-25 15:22 31.11108 30.23463 37816 ft 418 kts 283°
2026-04-25 15:22 31.12841 30.17002 37816 ft 418 kts 282°
2026-04-25 15:23 31.14566 30.10496 37814 ft 420 kts 283°
2026-04-25 15:23 31.16335 30.03982 37802 ft 421 kts 283°
2026-04-25 15:24 31.18658 29.97698 37821 ft 435 kts 298°
2026-04-25 15:24 31.21321 29.94065 37800 ft 445 kts 308°
2026-04-25 15:25 31.25600 29.90525 37843 ft 459 kts 322°
2026-04-25 15:25 31.28442 29.88771 37836 ft 460 kts 323°
2026-04-25 15:25 31.34101 29.85392 37841 ft 460 kts 323°
2026-04-25 15:26 31.39776 29.81932 37853 ft 459 kts 323°
2026-04-25 15:26 31.45406 29.78421 37857 ft 459 kts 323°
2026-04-25 15:27 31.51046 29.74875 37864 ft 460 kts 323°
2026-04-25 15:28 31.59538 29.69528 37875 ft 463 kts 323°
2026-04-25 15:28 31.65219 29.65949 37876 ft 464 kts 323°
2026-04-25 15:29 31.70916 29.62355 37884 ft 465 kts 323°
2026-04-25 15:29 31.76610 29.58758 37873 ft 466 kts 323°
2026-04-25 15:30 31.82333 29.55138 37882 ft 467 kts 323°
2026-04-25 15:30 31.88050 29.51516 37895 ft 467 kts 323°
2026-04-25 15:31 31.93748 29.47901 37903 ft 468 kts 323°
2026-04-25 15:31 31.99501 29.44246 37901 ft 468 kts 323°
2026-04-25 15:32 32.05227 29.40603 37906 ft 469 kts 323°
2026-04-25 15:32 32.10959 29.36950 37903 ft 469 kts 323°
2026-04-25 15:33 32.19612 29.31426 37905 ft 470 kts 324°
2026-04-25 15:33 32.25339 29.27762 37900 ft 470 kts 324°
2026-04-25 15:34 32.31095 29.24073 37908 ft 470 kts 324°
2026-04-25 15:34 32.34892 29.21636 37910 ft 470 kts 324°
2026-04-25 15:35 32.45455 29.14842 37907 ft 471 kts 324°
2026-04-25 15:36 32.54120 29.09256 37906 ft 472 kts 324°
2026-04-25 15:36 32.59887 29.05532 37903 ft 472 kts 324°
2026-04-25 15:37 32.65647 29.01806 37904 ft 473 kts 324°
2026-04-25 15:37 32.70475 28.98679 37902 ft 474 kts 324°
2026-04-25 15:38 32.77210 28.94310 37906 ft 474 kts 324°
2026-04-25 15:38 32.82059 28.91160 37907 ft 475 kts 324°
2026-04-25 15:39 32.87834 28.87403 37904 ft 476 kts 325°
2026-04-25 15:39 32.93657 28.83610 37900 ft 476 kts 325°
2026-04-25 15:40 32.98510 28.80444 37898 ft 477 kts 325°
2026-04-25 15:40 33.05280 28.76021 37902 ft 477 kts 325°
2026-04-25 15:41 33.11127 28.72194 37900 ft 478 kts 325°
2026-04-25 15:41 33.16919 28.68398 37902 ft 478 kts 325°
2026-04-25 15:42 33.22754 28.64567 37910 ft 478 kts 326°
2026-04-25 15:42 33.28598 28.60725 37894 ft 478 kts 326°
2026-04-25 15:43 33.34445 28.56875 37894 ft 479 kts 326°
2026-04-25 15:43 33.40266 28.53036 37896 ft 479 kts 326°
2026-04-25 15:44 33.46092 28.49188 37894 ft 479 kts 326°
2026-04-25 15:44 33.51940 28.45318 37891 ft 479 kts 326°
2026-04-25 15:45 33.57789 28.41443 37887 ft 479 kts 326°
2026-04-25 15:45 33.62616 28.38240 37888 ft 480 kts 326°
2026-04-25 15:46 33.69448 28.33698 37883 ft 480 kts 326°
2026-04-25 15:46 33.75281 28.29815 37882 ft 480 kts 326°
2026-04-25 15:47 33.81092 28.25949 37880 ft 480 kts 327°
2026-04-25 15:47 33.87082 28.22286 37881 ft 482 kts 329°
2026-04-25 15:48 33.93109 28.18750 37885 ft 482 kts 329°
2026-04-25 15:48 33.99117 28.15190 37881 ft 483 kts 329°
2026-04-25 15:49 34.05161 28.11564 37878 ft 483 kts 329°
2026-04-25 15:49 34.11159 28.07943 37876 ft 484 kts 329°
2026-04-25 15:50 34.17194 28.04293 37877 ft 485 kts 329°
2026-04-25 15:50 34.23199 28.00658 37871 ft 485 kts 329°
2026-04-25 15:51 34.28264 27.97588 37871 ft 486 kts 329°
2026-04-25 15:51 34.35292 27.93323 37869 ft 487 kts 329°
2026-04-25 15:52 34.41350 27.89639 37871 ft 487 kts 329°
2026-04-25 15:52 34.47414 27.85946 37874 ft 488 kts 329°
2026-04-25 15:53 34.53482 27.82244 37857 ft 488 kts 329°
2026-04-25 15:53 34.59563 27.78528 37863 ft 488 kts 329°
2026-04-25 15:54 34.65618 27.74822 37868 ft 488 kts 329°
2026-04-25 15:54 34.71666 27.71114 37870 ft 488 kts 329°
2026-04-25 15:55 34.77738 27.67385 37865 ft 489 kts 329°
2026-04-25 15:55 34.83785 27.63665 37864 ft 488 kts 330°
2026-04-25 15:56 34.89871 27.59915 37866 ft 488 kts 330°
2026-04-25 15:56 34.95913 27.56186 37866 ft 488 kts 330°
2026-04-25 15:57 35.01960 27.52448 37868 ft 488 kts 330°
2026-04-25 15:57 35.08043 27.48681 37863 ft 487 kts 330°
2026-04-25 15:58 35.14053 27.44954 37871 ft 487 kts 330°
2026-04-25 15:58 35.20106 27.41193 37862 ft 487 kts 330°
2026-04-25 15:59 35.26144 27.37436 37855 ft 487 kts 330°
2026-04-25 15:59 35.32167 27.33681 37846 ft 487 kts 330°
2026-04-25 16:00 35.36201 27.31163 37837 ft 487 kts 330°
2026-04-25 16:00 35.44267 27.26117 37834 ft 487 kts 330°
2026-04-25 16:01 35.50292 27.22341 37834 ft 487 kts 330°
2026-04-25 16:01 35.56301 27.18571 37843 ft 487 kts 330°
2026-04-25 16:02 35.62354 27.14767 37852 ft 487 kts 330°
2026-04-25 16:02 35.68389 27.10965 37861 ft 487 kts 330°
2026-04-25 16:03 35.74420 27.07160 37874 ft 487 kts 331°
2026-04-25 16:03 35.80449 27.03351 37889 ft 487 kts 331°
2026-04-25 16:04 35.86461 26.99545 37889 ft 487 kts 331°
2026-04-25 16:04 35.92491 26.95720 37895 ft 486 kts 331°
2026-04-25 16:05 35.98521 26.91889 37896 ft 486 kts 331°
2026-04-25 16:06 36.07543 26.86148 37894 ft 486 kts 331°
2026-04-25 16:06 36.13537 26.82323 37897 ft 486 kts 331°
2026-04-25 16:07 36.19548 26.78480 37902 ft 486 kts 331°
2026-04-25 16:07 36.25549 26.74638 37907 ft 486 kts 331°
2026-04-25 16:08 36.31560 26.70784 37909 ft 486 kts 331°
2026-04-25 16:08 36.37563 26.66928 37912 ft 485 kts 331°
2026-04-25 16:09 36.43568 26.63063 37917 ft 485 kts 331°
2026-04-25 16:09 36.49549 26.59207 37918 ft 484 kts 331°
2026-04-25 16:10 36.55537 26.55339 37922 ft 484 kts 331°
2026-04-25 16:10 36.61478 26.51496 37923 ft 484 kts 331°
2026-04-25 16:11 36.67488 26.47600 37926 ft 484 kts 331°
2026-04-25 16:11 36.73419 26.43750 37932 ft 484 kts 331°
2026-04-25 16:12 36.79390 26.39866 37935 ft 484 kts 331°
2026-04-25 16:12 36.85345 26.35986 37938 ft 484 kts 331°
2026-04-25 16:13 36.91330 26.32080 37945 ft 484 kts 332°
2026-04-25 16:13 36.97319 26.28165 37948 ft 485 kts 332°
2026-04-25 16:14 37.03297 26.24249 37947 ft 485 kts 332°
2026-04-25 16:14 37.09283 26.20321 37950 ft 485 kts 331°
2026-04-25 16:15 37.15227 26.16413 37952 ft 484 kts 332°
2026-04-25 16:15 37.21187 26.12489 37954 ft 484 kts 332°
2026-04-25 16:16 37.27136 26.08564 37955 ft 483 kts 332°
2026-04-25 16:16 37.33095 26.04624 37956 ft 483 kts 332°
2026-04-25 16:17 37.39047 26.00683 37963 ft 482 kts 332°
2026-04-25 16:17 37.44979 25.96748 37967 ft 482 kts 332°
2026-04-25 16:18 37.50899 25.92814 37966 ft 481 kts 332°
2026-04-25 16:18 37.56775 25.88902 37971 ft 481 kts 332°
2026-04-25 16:19 37.62820 25.85312 37974 ft 480 kts 337°
2026-04-25 16:19 37.69038 25.82113 37979 ft 480 kts 338°
2026-04-25 16:20 37.78326 25.77351 37978 ft 480 kts 337°
2026-04-25 16:21 37.87561 25.72534 37987 ft 480 kts 337°
2026-04-25 16:21 37.93750 25.69287 37983 ft 480 kts 337°
2026-04-25 16:22 37.98883 25.66591 37983 ft 480 kts 337°
2026-04-25 16:22 38.05035 25.63355 37984 ft 480 kts 337°
2026-04-25 16:23 38.11231 25.60091 37984 ft 479 kts 338°
2026-04-25 16:23 38.17388 25.56841 37985 ft 479 kts 338°
2026-04-25 16:24 38.23497 25.53611 37984 ft 478 kts 338°
2026-04-25 16:24 38.29647 25.50352 37986 ft 478 kts 338°
2026-04-25 16:25 38.35778 25.47099 37986 ft 477 kts 338°
2026-04-25 16:25 38.41898 25.43845 37990 ft 477 kts 338°
2026-04-25 16:26 38.48015 25.40587 37990 ft 477 kts 338°
2026-04-25 16:26 38.54185 25.37296 37975 ft 477 kts 338°
2026-04-25 16:27 38.60274 25.34039 37994 ft 477 kts 338°
2026-04-25 16:27 38.66392 25.30763 37995 ft 477 kts 338°
2026-04-25 16:28 38.72510 25.27480 37994 ft 477 kts 338°
2026-04-25 16:28 38.78631 25.24189 38000 ft 477 kts 339°
2026-04-25 16:29 38.84748 25.20894 38006 ft 477 kts 338°
2026-04-25 16:29 38.90847 25.17603 37988 ft 477 kts 338°
2026-04-25 16:30 38.96964 25.14296 38005 ft 477 kts 338°
2026-04-25 16:30 39.03079 25.10983 38012 ft 477 kts 338°
2026-04-25 16:31 39.09229 25.07646 38004 ft 477 kts 339°
2026-04-25 16:31 39.15299 25.04346 37996 ft 477 kts 339°
2026-04-25 16:32 39.21405 25.01019 37994 ft 476 kts 338°
2026-04-25 16:32 39.27511 24.97687 37992 ft 475 kts 338°
2026-04-25 16:33 39.33615 24.94349 37998 ft 474 kts 339°
2026-04-25 16:33 39.39681 24.91026 37999 ft 474 kts 338°
2026-04-25 16:34 39.45726 24.87708 38000 ft 473 kts 338°
2026-04-25 16:34 39.51772 24.84383 38024 ft 472 kts 338°
2026-04-25 16:35 39.57805 24.81059 38005 ft 471 kts 338°
2026-04-25 16:35 39.63840 24.77728 38005 ft 471 kts 338°
2026-04-25 16:36 39.69878 24.74388 38013 ft 471 kts 338°
2026-04-25 16:36 39.75868 24.71069 38008 ft 470 kts 338°
2026-04-25 16:37 39.81929 24.67704 38007 ft 470 kts 338°
2026-04-25 16:37 39.87946 24.64357 38014 ft 470 kts 338°
2026-04-25 16:38 39.93929 24.61023 38011 ft 470 kts 339°
2026-04-25 16:38 39.99943 24.57664 38008 ft 471 kts 339°
2026-04-25 16:39 40.05978 24.54288 38012 ft 470 kts 339°
2026-04-25 16:39 40.11987 24.50920 38008 ft 470 kts 339°
2026-04-25 16:40 40.18002 24.47542 38010 ft 470 kts 339°
2026-04-25 16:40 40.24032 24.44149 38011 ft 470 kts 339°
2026-04-25 16:41 40.30029 24.40768 38008 ft 470 kts 339°
2026-04-25 16:41 40.38993 24.35701 38007 ft 469 kts 339°
2026-04-25 16:42 40.44994 24.32302 38010 ft 469 kts 339°
2026-04-25 16:42 40.50964 24.28913 38004 ft 468 kts 339°
2026-04-25 16:43 40.56964 24.25500 38010 ft 468 kts 339°
2026-04-25 16:43 40.62939 24.22095 38004 ft 468 kts 339°
2026-04-25 16:44 40.68907 24.18688 38010 ft 467 kts 339°
2026-04-25 16:44 40.74848 24.15289 38006 ft 467 kts 339°
2026-04-25 16:45 40.80815 24.11868 38009 ft 467 kts 339°
2026-04-25 16:45 40.86776 24.08445 37998 ft 467 kts 339°
2026-04-25 16:46 40.92694 24.05040 38002 ft 466 kts 339°
2026-04-25 16:46 40.96702 24.02730 38006 ft 466 kts 339°
2026-04-25 16:47 41.04592 23.98171 37997 ft 466 kts 339°
2026-04-25 16:47 41.10531 23.94733 38002 ft 466 kts 339°
2026-04-25 16:48 41.16450 23.91300 37999 ft 466 kts 339°
2026-04-25 16:48 41.22408 23.87837 37996 ft 466 kts 339°
2026-04-25 16:49 41.28332 23.84387 38002 ft 465 kts 339°
2026-04-25 16:49 41.34265 23.80925 37993 ft 466 kts 339°
2026-04-25 16:50 41.40326 23.77940 37993 ft 463 kts 347°
2026-04-25 16:50 41.46619 23.76424 38000 ft 461 kts 355°
2026-04-25 16:51 41.53017 23.75561 38001 ft 461 kts 356°
2026-04-25 16:51 41.57270 23.75006 37998 ft 461 kts 356°
2026-04-25 16:52 41.65758 23.73838 37998 ft 459 kts 356°
2026-04-25 16:52 41.72091 23.72935 37994 ft 458 kts 356°
2026-04-25 16:53 41.81566 23.71576 38000 ft 455 kts 356°
2026-04-25 16:54 41.87841 23.70675 38002 ft 453 kts 356°
2026-04-25 16:54 41.94128 23.69773 38003 ft 453 kts 356°
2026-04-25 16:55 42.00389 23.68872 38009 ft 452 kts 356°
2026-04-25 16:55 42.06652 23.67968 37998 ft 452 kts 356°
2026-04-25 16:56 42.12905 23.67064 38002 ft 453 kts 356°
2026-04-25 16:56 42.19180 23.66156 38003 ft 454 kts 355°
2026-04-25 16:57 42.25461 23.65244 38001 ft 455 kts 355°
2026-04-25 16:57 42.31765 23.64216 38005 ft 456 kts 352°
2026-04-25 16:58 42.37979 23.62682 38000 ft 457 kts 351°
2026-04-25 16:58 42.44215 23.61053 38003 ft 458 kts 351°
2026-04-25 16:59 42.50489 23.59433 37996 ft 458 kts 351°
2026-04-25 16:59 42.56759 23.57834 38000 ft 458 kts 351°
2026-04-25 17:00 42.63028 23.56241 37996 ft 458 kts 351°
2026-04-25 17:00 42.69292 23.54647 37990 ft 457 kts 351°
2026-04-25 17:01 42.75534 23.53053 37999 ft 456 kts 351°
2026-04-25 17:01 42.81775 23.51456 38000 ft 455 kts 351°
2026-04-25 17:02 42.87983 23.49865 37998 ft 454 kts 351°
2026-04-25 17:02 42.94166 23.48277 38005 ft 453 kts 351°
2026-04-25 17:03 43.00350 23.46685 38011 ft 453 kts 351°
2026-04-25 17:03 43.06542 23.45088 38002 ft 453 kts 351°
2026-04-25 17:04 43.12740 23.43485 38000 ft 452 kts 351°
2026-04-25 17:04 43.18914 23.41885 38005 ft 451 kts 351°
2026-04-25 17:05 43.25074 23.40287 38002 ft 451 kts 351°
2026-04-25 17:05 43.34319 23.37882 37999 ft 451 kts 351°
2026-04-25 17:06 43.40490 23.36272 37990 ft 451 kts 351°
2026-04-25 17:06 43.46653 23.34661 37998 ft 451 kts 351°
2026-04-25 17:07 43.52750 23.33064 37988 ft 451 kts 351°
2026-04-25 17:07 43.57926 23.31705 37990 ft 451 kts 351°
2026-04-25 17:08 43.64116 23.30077 37982 ft 451 kts 351°
2026-04-25 17:08 43.70284 23.28451 37983 ft 451 kts 351°
2026-04-25 17:09 43.76453 23.26822 37974 ft 451 kts 350°
2026-04-25 17:09 43.82561 23.25201 37982 ft 450 kts 350°
2026-04-25 17:10 43.88651 23.23067 37979 ft 450 kts 346°
2026-04-25 17:10 43.94688 23.20708 37975 ft 450 kts 346°
2026-04-25 17:11 44.00699 23.18356 37973 ft 450 kts 346°
2026-04-25 17:11 44.06728 23.16020 37973 ft 449 kts 346°
2026-04-25 17:12 44.12758 23.13692 37966 ft 449 kts 346°
2026-04-25 17:12 44.18771 23.11369 37963 ft 448 kts 346°
2026-04-25 17:13 44.23807 23.09419 37958 ft 448 kts 346°
2026-04-25 17:13 44.30769 23.06716 37957 ft 448 kts 346°
2026-04-25 17:14 44.36793 23.04372 37971 ft 448 kts 346°
2026-04-25 17:14 44.42784 23.02035 37949 ft 448 kts 346°
2026-04-25 17:15 44.48778 22.99693 37967 ft 448 kts 345°
2026-04-25 17:15 44.54790 22.97339 37963 ft 448 kts 345°
2026-04-25 17:16 44.60840 22.94964 37962 ft 448 kts 345°
2026-04-25 17:16 44.66794 22.92622 37962 ft 447 kts 345°
2026-04-25 17:17 44.72790 22.90259 37960 ft 447 kts 345°
2026-04-25 17:17 44.78768 22.87897 37967 ft 446 kts 345°
2026-04-25 17:18 44.84755 22.85527 37961 ft 446 kts 345°
2026-04-25 17:18 44.90706 22.83166 37961 ft 445 kts 345°
2026-04-25 17:19 44.96677 22.80793 37974 ft 445 kts 345°
2026-04-25 17:19 45.02629 22.78421 37977 ft 445 kts 345°
2026-04-25 17:20 45.08588 22.76042 37968 ft 445 kts 345°
2026-04-25 17:20 45.14545 22.73657 37979 ft 445 kts 345°
2026-04-25 17:21 45.20531 22.71257 37988 ft 445 kts 345°
2026-04-25 17:21 45.26456 22.68875 37985 ft 446 kts 344°
2026-04-25 17:22 45.31438 22.66869 37990 ft 447 kts 344°
2026-04-25 17:22 45.38423 22.64049 37990 ft 446 kts 344°
2026-04-25 17:23 45.44390 22.61635 37983 ft 445 kts 344°
2026-04-25 17:23 45.50343 22.59221 37985 ft 444 kts 344°
2026-04-25 17:24 45.56287 22.56807 37983 ft 443 kts 344°
2026-04-25 17:24 45.62197 22.54400 37981 ft 443 kts 344°
2026-04-25 17:25 45.68133 22.51978 37974 ft 442 kts 343°
2026-04-25 17:25 45.74043 22.49561 37971 ft 442 kts 343°
2026-04-25 17:26 45.79954 22.47137 37972 ft 443 kts 343°
2026-04-25 17:26 45.85902 22.44694 37975 ft 443 kts 343°
2026-04-25 17:27 45.91777 22.42275 37969 ft 443 kts 343°
2026-04-25 17:27 45.95760 22.40632 37967 ft 443 kts 343°
2026-04-25 17:28 46.03661 22.37366 37966 ft 444 kts 343°
2026-04-25 17:28 46.09618 22.34897 37965 ft 443 kts 343°
2026-04-25 17:29 46.15532 22.32440 37969 ft 443 kts 343°
2026-04-25 17:29 46.21458 22.29972 37966 ft 443 kts 343°
2026-04-25 17:30 46.27364 22.27508 37960 ft 443 kts 343°
2026-04-25 17:30 46.33276 22.25034 37958 ft 442 kts 342°
2026-04-25 17:31 46.39178 22.22560 37967 ft 441 kts 342°
2026-04-25 17:31 46.45069 22.20085 37950 ft 441 kts 342°
2026-04-25 17:32 46.50954 22.17547 37960 ft 440 kts 341°
2026-04-25 17:32 46.56805 22.14934 37939 ft 440 kts 341°
2026-04-25 17:33 46.62639 22.12324 37952 ft 440 kts 341°
2026-04-25 17:33 46.68468 22.09721 37958 ft 439 kts 341°
2026-04-25 17:34 46.74321 22.07106 37957 ft 439 kts 341°
2026-04-25 17:34 46.80156 22.04493 37953 ft 439 kts 341°
2026-04-25 17:35 46.85989 22.01876 37955 ft 439 kts 341°
2026-04-25 17:35 46.91824 21.99252 37936 ft 439 kts 341°
2026-04-25 17:36 46.97652 21.96627 37942 ft 439 kts 338°
2026-04-25 17:36 47.03517 21.93974 37945 ft 440 kts 338°
2026-04-25 17:37 47.09374 21.91320 37947 ft 440 kts 338°
2026-04-25 17:37 47.15228 21.88663 37945 ft 441 kts 338°
2026-04-25 17:38 47.19163 21.86873 37939 ft 441 kts 338°
2026-04-25 17:38 47.26974 21.83460 37933 ft 442 kts 339°
2026-04-25 17:39 47.32880 21.80991 37919 ft 443 kts 339°
2026-04-25 17:39 47.38827 21.78489 37913 ft 443 kts 339°
2026-04-25 17:40 47.44753 21.75973 37918 ft 443 kts 339°
2026-04-25 17:40 47.50660 21.73453 37917 ft 443 kts 338°
2026-04-25 17:41 47.56602 21.70911 37921 ft 443 kts 338°
2026-04-25 17:41 47.62529 21.68371 37917 ft 444 kts 338°
2026-04-25 17:42 47.68461 21.65822 37911 ft 444 kts 338°
2026-04-25 17:42 47.74399 21.63265 37903 ft 444 kts 338°
2026-04-25 17:43 47.80352 21.60695 37895 ft 444 kts 338°
2026-04-25 17:43 47.86286 21.58128 37894 ft 444 kts 338°
2026-04-25 17:44 47.92199 21.55564 37882 ft 444 kts 338°
2026-04-25 17:44 47.98152 21.52976 37887 ft 444 kts 338°
2026-04-25 17:45 48.02082 21.51264 37886 ft 443 kts 338°
2026-04-25 17:45 48.09965 21.47821 37882 ft 443 kts 338°
2026-04-25 17:46 48.15903 21.45221 37885 ft 443 kts 338°
2026-04-25 17:46 48.21828 21.42620 37879 ft 443 kts 338°
2026-04-25 17:47 48.27747 21.40016 37879 ft 443 kts 338°
2026-04-25 17:47 48.33647 21.37413 37862 ft 442 kts 338°
2026-04-25 17:48 48.42459 21.33514 37865 ft 442 kts 338°
2026-04-25 17:49 48.47418 21.31313 37855 ft 442 kts 338°
2026-04-25 17:49 48.54275 21.28266 37859 ft 443 kts 338°
2026-04-25 17:50 48.59217 21.26077 37859 ft 444 kts 338°
2026-04-25 17:50 48.65152 21.23447 37859 ft 444 kts 338°
2026-04-25 17:51 48.71081 21.20811 37858 ft 445 kts 338°
2026-04-25 17:51 48.77023 21.18162 37857 ft 446 kts 338°
2026-04-25 17:52 48.82994 21.15491 37867 ft 447 kts 338°
2026-04-25 17:52 48.88937 21.12828 37884 ft 447 kts 338°
2026-04-25 17:53 48.94909 21.10145 37886 ft 447 kts 338°
2026-04-25 17:53 49.00891 21.07450 37898 ft 448 kts 338°
2026-04-25 17:54 49.06902 21.04735 37896 ft 449 kts 338°
2026-04-25 17:54 49.12846 21.02045 37912 ft 449 kts 338°
2026-04-25 17:55 49.18834 20.99327 37894 ft 449 kts 338°
2026-04-25 17:55 49.24864 20.96585 37915 ft 448 kts 338°
2026-04-25 17:56 49.30804 20.93874 37905 ft 449 kts 338°
2026-04-25 17:56 49.36803 20.91130 37908 ft 448 kts 338°
2026-04-25 17:57 49.42744 20.88408 37913 ft 448 kts 338°
2026-04-25 17:57 49.48741 20.85651 37906 ft 447 kts 338°
2026-04-25 17:58 49.54680 20.82913 37908 ft 446 kts 338°
2026-04-25 17:58 49.60614 20.80170 37907 ft 446 kts 338°
2026-04-25 17:59 49.66555 20.77418 37911 ft 447 kts 338°
2026-04-25 17:59 49.72535 20.74642 37894 ft 447 kts 338°
2026-04-25 18:00 49.78494 20.71867 37895 ft 448 kts 338°
2026-04-25 18:00 49.84439 20.69092 37893 ft 448 kts 338°
2026-04-25 18:01 49.90428 20.66289 37888 ft 448 kts 338°
2026-04-25 18:01 49.96394 20.63490 37889 ft 448 kts 338°
2026-04-25 18:02 50.02368 20.60680 37888 ft 448 kts 338°
2026-04-25 18:02 50.08411 20.58228 37885 ft 453 kts 345°
2026-04-25 18:03 50.14717 20.57381 37882 ft 460 kts 354°
2026-04-25 18:03 50.21182 20.57940 37878 ft 464 kts 358°
2026-04-25 18:04 50.27574 20.58709 37871 ft 463 kts 358°
2026-04-25 18:04 50.34039 20.59429 37877 ft 463 kts 357°
2026-04-25 18:05 50.40438 20.60095 37867 ft 462 kts 357°
2026-04-25 18:05 50.46894 20.60758 37114 ft 475 kts 357°
2026-04-25 18:05 50.50170 20.61098 36498 ft 474 kts 357°
2026-04-25 18:06 50.53495 20.61449 35607 ft 474 kts 357°
2026-04-25 18:06 50.56755 20.61793 34718 ft 473 kts 357°
2026-04-25 18:06 50.60027 20.62137 33806 ft 473 kts 357°
2026-04-25 18:06 50.63319 20.62480 32724 ft 473 kts 357°
2026-04-25 18:07 50.66595 20.62822 31665 ft 472 kts 357°
2026-04-25 18:07 50.69867 20.63164 30633 ft 473 kts 357°
2026-04-25 18:07 50.73128 20.63509 29919 ft 466 kts 358°
2026-04-25 18:07 50.76369 20.63854 29082 ft 461 kts 357°
2026-04-25 18:08 50.79540 20.64191 28346 ft 455 kts 357°
2026-04-25 18:08 50.82694 20.64527 27647 ft 448 kts 357°
2026-04-25 18:08 50.85784 20.64855 26965 ft 442 kts 357°
2026-04-25 18:08 50.88835 20.65177 26291 ft 437 kts 357°
2026-04-25 18:09 50.91860 20.65496 25620 ft 433 kts 357°
2026-04-25 18:09 50.94855 20.65812 24979 ft 428 kts 357°
2026-04-25 18:09 50.97806 20.66123 24348 ft 424 kts 357°
2026-04-25 18:09 50.98756 20.66224 24138 ft 423 kts 357°
2026-04-25 18:10 51.03625 20.66740 23037 ft 418 kts 356°
2026-04-25 18:10 51.06529 20.67048 22331 ft 414 kts 356°
2026-04-25 18:10 51.09402 20.67355 21695 ft 409 kts 356°
2026-04-25 18:10 51.12202 20.67655 21094 ft 405 kts 356°
2026-04-25 18:11 51.15032 20.67958 20492 ft 401 kts 356°
2026-04-25 18:11 51.17773 20.68250 19910 ft 397 kts 356°
2026-04-25 18:11 51.20560 20.68546 19324 ft 394 kts 356°
2026-04-25 18:11 51.23216 20.68834 19148 ft 381 kts 356°
2026-04-25 18:12 51.25814 20.69120 18973 ft 369 kts 355°
2026-04-25 18:12 51.28343 20.69427 18804 ft 360 kts 358°
2026-04-25 18:12 51.30743 20.70312 18491 ft 365 kts
2026-04-25 18:12 51.33184 20.71688 18164 ft 363 kts 11°
2026-04-25 18:13 51.35548 20.73059 17799 ft 362 kts 11°
2026-04-25 18:13 51.37936 20.74412 17437 ft 362 kts 10°
2026-04-25 18:13 51.40318 20.75725 17097 ft 362 kts 10°
2026-04-25 18:14 51.45070 20.78288 16424 ft 360 kts
2026-04-25 18:14 51.47455 20.79569 16090 ft 359 kts
2026-04-25 18:14 51.49799 20.80830 15752 ft 358 kts
2026-04-25 18:14 51.52175 20.82115 15447 ft 356 kts 10°
2026-04-25 18:15 51.54497 20.83408 15141 ft 352 kts 10°
2026-04-25 18:15 51.56788 20.84704 14747 ft 344 kts 10°
2026-04-25 18:15 51.59013 20.85976 13775 ft 333 kts 10°
2026-04-25 18:15 51.61186 20.87206 12538 ft 330 kts 11°
2026-04-25 18:16 51.63320 20.88408 11326 ft 328 kts 11°
2026-04-25 18:16 51.65402 20.89592 10893 ft 303 kts 11°
2026-04-25 18:16 51.69117 20.91716 10100 ft 268 kts 10°
2026-04-25 18:17 51.70893 20.92708 9752 ft 271 kts 10°
2026-04-25 18:17 51.72700 20.93710 9377 ft 284 kts 11°
2026-04-25 18:17 51.74597 20.94768 8946 ft 287 kts 11°
2026-04-25 18:17 51.76438 20.95817 8516 ft 271 kts 11°
2026-04-25 18:18 51.78187 20.96817 8161 ft 266 kts 11°
2026-04-25 18:18 51.79948 20.97811 7801 ft 271 kts 12°
2026-04-25 18:18 51.81714 20.98810 7530 ft 269 kts 12°
2026-04-25 18:18 51.83463 20.99808 7241 ft 264 kts 12°
2026-04-25 18:19 51.85193 21.00792 6892 ft 264 kts 12°
2026-04-25 18:19 51.86926 21.01777 6541 ft 267 kts 12°
2026-04-25 18:19 51.88678 21.02775 6172 ft 265 kts 13°
2026-04-25 18:19 51.90357 21.03740 5768 ft 249 kts 12°
2026-04-25 18:20 51.91925 21.04644 5410 ft 229 kts 12°
2026-04-25 18:20 51.93366 21.05472 5109 ft 209 kts 11°
2026-04-25 18:20 51.94681 21.06226 4894 ft 192 kts 11°
2026-04-25 18:20 51.95904 21.06925 4598 ft 181 kts 10°
2026-04-25 18:21 51.97089 21.07599 4353 ft 181 kts 10°
2026-04-25 18:21 51.98284 21.08278 4110 ft 182 kts 10°
2026-04-25 18:21 51.99478 21.08959 3862 ft 182 kts 10°
2026-04-25 18:21 52.00661 21.09551 3590 ft 174 kts 356°
2026-04-25 18:22 52.01752 21.09145 3442 ft 162 kts 329°
2026-04-25 18:22 52.02103 21.08895 3358 ft 167 kts 330°
2026-04-25 18:22 52.03911 21.07697 2956 ft 166 kts 329°
2026-04-25 18:22 52.04942 21.06863 2741 ft 167 kts 326°
2026-04-25 18:23 52.05984 21.05967 2522 ft 170 kts 324°
2026-04-25 18:23 52.07010 21.05076 2306 ft 162 kts 324°
2026-04-25 18:23 52.07937 21.04272 2075 ft 143 kts 323°
2026-04-25 18:23 52.08772 21.03542 1892 ft 132 kts 322°
2026-04-25 18:24 52.09571 21.02841 1718 ft 130 kts 322°
2026-04-25 18:24 52.10357 21.02153 1546 ft 128 kts 325°
2026-04-25 18:24 52.11144 21.01464 1380 ft 129 kts 325°
2026-04-25 18:24 52.11955 21.00754 1189 ft 136 kts 326°
2026-04-25 18:25 52.12787 21.00032 999 ft 133 kts 324°
2026-04-25 18:25 52.13590 20.99328 812 ft 131 kts 325°
2026-04-25 18:25 52.14403 20.98619 651 ft 134 kts 326°
2026-04-25 18:25 52.15232 20.97897 466 ft 137 kts 328°
2026-04-25 18:26 52.16083 20.97152 361 ft 133 kts 330°
2026-04-25 18:26 52.16805 20.96509 348 ft 99 kts 332°
2026-04-25 18:26 52.17248 20.96122 346 ft 53 kts 332°
2026-04-25 18:26 52.17442 20.95996 352 ft 23 kts 11°
2026-04-25 18:27 52.17542 20.96059 353 ft 0 kts 27°
2026-04-25 18:28 52.17546 20.96063 353 ft 3 kts 31°
2026-04-25 18:28 52.17577 20.96137 352 ft 12 kts 75°
2026-04-25 18:28 52.17534 20.96271 353 ft 17 kts 148°
2026-04-25 18:29 52.17460 20.96543 349 ft 13 kts 109°
2026-04-25 18:29 52.17374 20.96652 347 ft 18 kts 152°
2026-04-25 18:30 52.17298 20.96718 352 ft 6 kts 152°
2026-04-25 18:30 52.17255 20.96760 352 ft 6 kts 134°
2026-04-25 18:30 52.17257 20.96840 349 ft 7 kts 66°
2026-04-25 18:30 52.17263 20.96865 354 ft 0 kts 65°
2026-04-25 18:31 52.17264 20.96866 354 ft 0 kts 65°
2026-04-25 18:31 52.17266 20.96876 353 ft 1 kts 67°
2026-04-25 18:31 52.17269 20.96887 352 ft 1 kts 66°
2026-04-25 18:32 52.17270 20.96891 352 ft 0 kts 65°